"Pseudo-MPEC" for C15LM02

Created 2019 Oct 11 13:07:18 UT using Find_Orb

Click here for an explanation of pseudo-MPECs

 
 Astrometry: 
     C15LM02  C2019 10 10.30063 03 02 12.83 +04 39 04.0    ~AA8M 19.0 GVNEOCPG96
     C15LM02  C2019 10 10.30726 03 02 18.79 +04 43 37.7    ~AA8M       VNEOCPG96
     C15LM02  C2019 10 10.31204 03 02 23.10 +04 46 55.0    ~AA8M 19.0 GVNEOCPG96
     C15LM02  C2019 10 10.31682 03 02 27.41 +04 50 14.3    ~AA8M       VNEOCPG96
     C15LM02  C2019 10 10.36152203 03 05.25 +05 21 51.3    ~AA9b 18.1 GVNEOCPH01
     C15LM02  C2019 10 10.36627803 03 09.70 +05 25 20.9    ~AA9b 18.5 GVNEOCPH01
     C15LM02  C2019 10 10.37526203 03 18.17 +05 32 00.2    ~AA9b 18.4 GVNEOCPH01
     C15LM02  C2019 10 10.38457803 03 27.05 +05 38 58.5    ~AA9b 18.4 GVNEOCPH01
     C15LM02  C2019 10 10.42741 03 04 12.32 +06 12 24.5    ~AAAb 18.8 GVNEOCPI52
     C15LM02  C2019 10 10.42807 03 04 13.00 +06 12 56.0    ~AAAb 18.7 GVNEOCPI52
     C15LM02  C2019 10 10.42871 03 04 13.66 +06 13 26.5    ~AAAb 18.4 GVNEOCPI52
     C15LM02  C2019 10 10.42935 03 04 14.31 +06 13 57.0    ~AAAb 18.6 GVNEOCPI52
     C15LM02 KC2019 10 10kIo%LiZTOMQ\G\eckRNU5A`J^xoO!d.M-iC;rqmTrGk]GT(S\8B#L01
     C15LM02 KC2019 10 10V)':[vC\:RcA-=9X0HP19h2GJ@)bb`skh3LWbYc[*3xwEcyONl=;L01
     C15LM02 KC2019 10 10mB[v*w7#C%kow2Ve8kI%DJaTy5FqP:9ejwc'U,`FU8AnAY:j^^DbL01
     C15LM02 KC2019 10 10Ex4E3e9*]WGe2S%Xc=Astrometry4*fUZyrD?=B[redacted;+AHL01
     C15LM02 KC2019 10 10J4NUr+70pPMheW.@uhtR`qW:Rb63$(BvgDg_.^6[Um4OBItAEs\Q595
     C15LM02 KC2019 10 105L+P3D'UCn:Q,Pgf_45VV8+rZPEp\5Bgclick7LU6S0YJdbU+On?L01
     C15LM02 KC2019 10 10))v`v[2Ve2LGGH58tDN(T-*XLFgWu\w%?M?;.QKs=wAdE0WtT+bm595
     C15LM02 KC2019 10 10,t?RbP(xMaqg.18\Oj#mi3JcAVhere?]IKWBXsr:K!CT[dclVyA5L01
     C15LM02 KC2019 10 10ji_-doMGR$:dxg$IgYFA:d^-A](A9qefor(WsFmyRL9q$O'G/NC#595
     C15LM02 KC2019 10 10l'd3?m/Xt;OGaVG/UT[nK_OfPcnsgaUQNtx]R=2GlY/H[#5SL:8U204
     C15LM02 KC2019 10 10:X_X'YEh4Pp.OT:F@b8yK;explanationZCrIvxch-Xm6'5I:e@n204
     C15LM02 KC2019 10 10Npnn2aG]\N+VMID4'y'=aRPUqJ1@x(4F:umRw)X5i-^gA?f#6mdh204

Station data:
(204) Schiaparelli Observatory  (N45.867933 E8.770800)  Italy.  Observer L.
   Buzzi. 0.60-m f/4.64 Newtonian + CCD.
(595) Farra d'Isonzo  (N45.915734 E13.525780)  Italy.  Observers L.
   Bittesini, F. Fabris, E. Pettarin, F. Piani. Measurer E. Pettarin. 0.30-m
   f/4.5 reflector + CCD.
(G96) Mt. Lemmon Survey  (N32.442754 W110.788720)  US/Arizona.  Observers T.
   A. Pruyne, B. M. Africano, E. J. Christensen, G. A. Farneth, D. C. Fuls,
   A. R. Gibbs, A. D. Grauer, H. Groeller, J. A. Johnson, R. A. Kowalski, S.
   M. Larson, G. J. Leonard, D. Rankin, R. L. Seaman, F. C. Shelly. 1.5-m
   reflector + 10K CCD.
(H01) Magdalena Ridge Observatory, Socorro  (N33.984833 W107.189333)  US/New
   Mexico.  Observers W. H. Ryan, E. V. Ryan. Measurer W. H. Ryan. 2.4-m
   f/8.9 reflector + CCD.
(I52) Steward Observatory, Mt. Lemmon Station  (N32.442547 W110.788920)
   US/Arizona.  Observers T. A. Pruyne, B. M. Africano, E. J. Christensen, G.
   A. Farneth, D. C. Fuls, A. R. Gibbs, A. D. Grauer, H. Groeller, J. A.
   Johnson, R. A. Kowalski, S. M. Larson, G. J. Leonard, D. Rankin, R. L.
   Seaman, F. C. Shelly. 1.0-m reflector + CCD.
(L01) Višnjan Observatory, Tičan  (N45.290900 E13.749300)  Croatia.
   Observers K. Korlević, E. Pettarin. Measurer E. Pettarin. 1.0-m f/2.9
   reflector + CCD.

Orbital elements:  C15LM02
   Perihelion 2019 Dec 20.590709 +/- 0.0111 TT = 14:10:37 (JD 2458838.090709)
Epoch 2019 Oct 11.0 TT = JDT 2458767.5   Earth MOID: 0.0024   Ve: 0.0082
M 291.91106025 +/- 0.017            (J2000 ecliptic)          AutoNEOCP
n   0.96455950 +/- 0.000104         Peri.  109.00623 +/- 0.0052
a   1.01449528 +/- 7.27e-5          Node    17.36410 +/- 0.00009
e   0.3526324 +/- 0.000138          Incl.   10.93435 +/- 0.0048
P   1.02/373.22d           H 27.7   G  0.15   U  6.6  
q 0.65675132 +/- 0.000102    Q 1.37223923 +/- 0.000231
From 24 observations 2019 Oct. 10 (16.5 hr); mean residual 0".36
Residuals in arcseconds: 
191010 G96  .06+  .07-    191010 I52  .08-  .41-    191010 595  .66+  .04+    
191010 G96  .00   .71+    191010 I52  .00   .30-    191010 L01  .33+  .20+    
191010 G96  .06+  .05-    191010 I52  .07+  .26-    191010 595  .49+  1.2+    
191010 G96  .01+  .10+    191010 I52  .01-  .24-    191010 L01  .12-  .35-    
191010 H01  .07-  .08+    191010 L01  .01-  .20+    191010 595  .08-  .91+    
191010 H01  .03-  .02+    191010 L01  .05-  .06-    191010 204  .37-  .99-    
191010 H01  .02-  .09+    191010 L01  .18-  .26-    191010 204  .09+  .22-    
191010 H01  .11-  .03-    191010 L01  .40-  .45-    191010 204  .35-  .14-    

Ephemerides (geocentric):
Date (UTC) HH   RA              Dec         delta   r     elong  mag " sig PA
---- -- -- --  -------------   -----------  ------ ------ -----  --- ---- ---
2019 10 11 13  04 31 30.468   +45 03 03.05  608333 1.0005 121.4 17.9 1.00 136
2019 10 11 14  04 43 26.424   +48 07 26.76  591529 1.0002 118.3 17.9 1.06 139
2019 10 11 15  04 57 38.445   +51 16 05.84  577305 1.0000 115.0 17.9 1.12 143
2019 10 11 16  05 14 40.644   +54 25 24.27  565856 0.9997 111.6 18.0 1.19 148
2019 10 11 17  05 35 14.336   +57 30 25.98  557354 0.9995 107.9 18.1 1.25 154
2019 10 11 18  06 00 05.580   +60 24 44.73  551934 0.9992 104.2 18.2 1.31 162
2019 10 11 19  06 29 56.694   +63 00 24.39  549689 0.9989 100.3 18.3 1.37 171
2019 10 11 20  07 05 07.544   +65 08 25.24  550657 0.9987  96.5 18.5 1.43   1
2019 10 11 21  07 45 06.811   +66 39 58.85  554822 0.9984  92.7 18.6 1.48  13
2019 10 11 22  08 28 08.513   +67 28 40.93  562112 0.9982  88.9 18.8 1.54  26
2019 10 11 23  09 11 24.043   +67 32 55.36  572407 0.9979  85.3 19.0 1.60  39
2019 10 12 00  09 51 59.529   +66 56 46.78  585549 0.9977  81.8 19.2 1.65  51
2019 10 12 01  10 27 57.520   +65 48 27.20  601351 0.9974  78.5 19.4 1.70  62
2019 10 12 02  10 58 36.417   +64 17 28.14  619610 0.9972  75.4 19.6 1.75  71
2019 10 12 03  11 24 10.348   +62 32 27.72  640114 0.9969  72.4 19.9 1.80  79
2019 10 12 04  11 45 19.738   +60 40 12.99  662655 0.9966  69.7 20.1 1.84  86
2019 10 12 05  12 02 50.834   +58 45 36.60  687032 0.9964  67.2 20.3 1.88  92
2019 10 12 06  12 17 25.933   +56 51 56.49  713057 0.9961  64.9 20.6 1.92  97
2019 10 12 07  12 29 40.266   +55 01 19.73  740556 0.9959  62.7 20.8 1.96 101
2019 10 12 08  12 40 01.952   +53 15 03.22  769370 0.9956  60.8 21.0 1.99 105
2019 10 12 09  12 48 53.033   +51 33 49.32  799356 0.9954  59.0 21?? 2.02 108
2019 10 12 10  12 56 30.691   +49 57 57.27  830389 0.9951  57.3 21?? 2.04 111
2019 10 12 11  13 03 08.341   +48 27 31.11  862354 0.9949  55.7 21?? 2.07 113
2019 10 12 12  13 08 56.512   +47 02 25.14  895152 0.9946  54.3 21?? 2.09 115
2019 10 12 13  13 14 03.526   +45 42 27.68  928693 0.9943  53.0 22?? 2.11 117
2019 10 12 14  13 18 36.019   +44 27 23.62  962901 0.9941  51.8 22?? 2.13 119
2019 10 12 15  13 22 39.321   +43 16 56.05  997707 0.9938  50.7 22?? 2.14 121
2019 10 12 16  13 26 17.756   +42 10 47.43  .00691 0.9936  49.7 22?? 2.16 122
2019 10 12 17  13 29 34.857   +41 08 40.30  .00715 0.9933  48.7 22?? 2.17 123
2019 10 12 18  13 32 33.532   +40 10 17.71  .00739 0.9931  47.8 22?? 2.19 125
2019 10 12 19  13 35 16.198   +39 15 23.52  .00763 0.9928  47.0 23?? 2.20 126
2019 10 12 20  13 37 44.875   +38 23 42.51  .00788 0.9925  46.3 23?? 2.21 127
2019 10 12 21  13 40 01.261   +37 35 00.49  .00813 0.9923  45.6 23?? 2.22 128
2019 10 12 22  13 42 06.796   +36 49 04.27  .00838 0.9920  44.9 23?? 2.23 128
2019 10 12 23  13 44 02.707   +36 05 41.69  .00863 0.9918  44.3 23?? 2.24 129
2019 10 13 00  13 45 50.045   +35 24 41.52  .00889 0.9915  43.7 23?? 2.25 130
2019 10 13 01  13 47 29.714   +34 45 53.44  .00915 0.9913  43.1 23?? 2.26 131
2019 10 13 02  13 49 02.498   +34 09 07.96  .00940 0.9910  42.6 24?? 2.27 131
2019 10 13 03  13 50 29.079   +33 34 16.39  .00966 0.9908  42.2 24?? 2.28 132
2019 10 13 04  13 51 50.051   +33 01 10.74  .00992 0.9905  41.7 24?? 2.28 132
2019 10 13 05  13 53 05.938   +32 29 43.69  .01019 0.9902  41.3 24?? 2.29 133
2019 10 13 06  13 54 17.198   +31 59 48.51  .01045 .98998  40.9 24?? 2.30 133
2019 10 13 07  13 55 24.239   +31 31 19.02  .01071 .98972  40.5 24?? 2.30 134
2019 10 13 08  13 56 27.421   +31 04 09.56  .01098 .98947  40.1 24?? 2.31 134
2019 10 13 09  13 57 27.064   +30 38 14.90  .01124 .98921  39.8 24?? 2.31 135
2019 10 13 10  13 58 23.456   +30 13 30.26  .01151 .98895  39.5 24?? 2.32 135
2019 10 13 11  13 59 16.854   +29 49 51.19  .01177 .98870  39.2 25?? 2.32 135
2019 10 13 12  14 00 07.486   +29 27 13.63  .01204 .98844  38.9 25?? 2.33 136